Weather History for Breckenridge, TX

Change the Weather History Date:

Tuesday, September 24, 2013

  Actual Average (KABI) Record (KABI)
Temperature  
Mean Temperature 76 °F 73 °F  
Max Temperature 91 °F 84 °F 99 °F (1979)
Min Temperature 62 °F 61 °F 38 °F (1989)
Degree Days  
Heating Degree Days 0 1  
Month to date heating degree days 5  
Since 1 July heating degree days 5  
Cooling Degree Days 12 8  
Month to date cooling degree days 282  
Year to date cooling degree days 2227  
Growing Degree Days 26 (Base 50)    
Moisture  
Dew Point 52 °F    
Average Humidity 44    
Maximum Humidity 74    
Minimum Humidity 24    
Precipitation  
Precipitation 0.00 in 0.08 in 2.51 in (1955)
Month to date precipitation 1.81  
Year to date precipitation 18.77  
Sea Level Pressure  
Sea Level Pressure 29.92 in    
Wind  
Wind Speed 5 mph (ENE)    
Max Wind Speed 12 mph    
Max Gust Speed 18 mph    
Visibility 10 miles    
Events      
T = Trace of Precipitation, MM = Missing Value Source: NWS Daily Summary

Daily Weather History Graph

Daily Weather History Graph

Search for Another Location

Airport:

Trip Planner

Search our weather history database for the weather conditions in past years. The results will help you decide how hot, cold, wet, or windy it might be!

Date:

Astronomy

Sep. 24, 2013 Rise Set
Actual Time 7:25 AM CDT 7:29 PM CDT
Civil Twilight 7:00 AM CDT 7:53 PM CDT
Nautical Twilight 6:31 AM CDT 8:22 PM CDT
Astronomical Twilight 6:03 AM CDT 8:51 PM CDT
Moon 11:04 PM CDT (9/24) 12:24 PM CDT (9/24)
Length of Visible Light 12h 53m
Length of Day
12h 03m
Waning Gibbous, 73% of the Moon is Illuminated
Sep 24
Waning Gibbous
Sep 26
Last Quarter
Oct 4
New
Oct 11
First Quarter
Oct 18
Full

Hourly Weather History & Observations

Time (CDT) Temp. Heat Index Dew Point Humidity Pressure Visibility Wind Dir Wind Speed Gust Speed Precip Events Conditions
12:15 AM 72.7 °F - 51.3 °F 47% 29.84 in 10.0 mi SE 6.9 mph - N/A   Clear
12:35 AM 71.6 °F - 51.8 °F 50% 29.84 in 10.0 mi SSE 4.6 mph - N/A   Clear
12:55 AM 71.6 °F - 51.8 °F 50% 29.85 in 10.0 mi SSE 4.6 mph - N/A   Clear
1:15 AM 70.7 °F - 52.3 °F 52% 29.85 in 10.0 mi SSE 3.5 mph - N/A   Clear
1:35 AM 69.4 °F - 52.7 °F 55% 29.85 in 10.0 mi SSE 5.8 mph - N/A   Clear
1:55 AM 69.8 °F - 52.9 °F 55% 29.85 in 10.0 mi SSE 6.9 mph - N/A   Clear
2:35 AM 69.8 °F - 52.9 °F 55% 29.85 in 10.0 mi SSE 6.9 mph - N/A   Clear
2:55 AM 69.8 °F - 52.9 °F 55% 29.86 in 10.0 mi SSE 4.6 mph - N/A   Clear
3:15 AM 68.9 °F - 52.9 °F 57% 29.87 in 10.0 mi Calm Calm - N/A   Clear
3:35 AM 68.0 °F - 52.7 °F 58% 29.87 in 10.0 mi SSE 3.5 mph - N/A   Clear
3:55 AM 67.3 °F - 52.7 °F 59% 29.87 in 10.0 mi SE 4.6 mph - N/A   Clear
4:35 AM 63.5 °F - 54.1 °F 72% 29.87 in 10.0 mi ESE 5.8 mph - N/A   Clear
4:55 AM 63.1 °F - 53.6 °F 71% 29.87 in 10.0 mi SE 6.9 mph - N/A   Clear
5:15 AM 65.7 °F - 52.7 °F 63% 29.87 in 10.0 mi SE 9.2 mph - N/A   Clear
5:35 AM 66.6 °F - 52.2 °F 60% 29.87 in 10.0 mi SSE 10.4 mph - N/A   Clear
5:55 AM 67.1 °F - 51.8 °F 58% 29.88 in 10.0 mi SSE 8.1 mph - N/A   Clear
6:15 AM 67.1 °F - 51.4 °F 57% 29.89 in 10.0 mi SSE 6.9 mph - N/A   Clear
6:35 AM 65.7 °F - 52.0 °F 61% 29.90 in 10.0 mi Calm Calm - N/A   Clear
6:55 AM 64.6 °F - 52.2 °F 64% 29.91 in 10.0 mi Calm Calm - N/A   Clear
7:15 AM 64.8 °F - 52.2 °F 64% 29.92 in 10.0 mi Calm Calm - N/A   Clear
7:35 AM 63.0 °F - 53.1 °F 70% 29.93 in 10.0 mi Calm Calm - N/A   Clear
7:55 AM 62.6 °F - 53.2 °F 71% 29.93 in 10.0 mi Calm Calm - N/A   Clear
8:15 AM 63.9 °F - 55.4 °F 74% 29.94 in 10.0 mi Calm Calm - N/A   Clear
8:35 AM 66.0 °F - 55.2 °F 68% 29.94 in 10.0 mi North - - N/A   Clear
8:55 AM 70.5 °F - 53.4 °F 55% 29.94 in 10.0 mi South 3.5 mph - N/A   Clear
9:15 AM 72.5 °F - 54.1 °F 52% 29.95 in 10.0 mi Calm Calm - N/A   Clear
9:35 AM 73.9 °F - 55.4 °F 52% 29.96 in 10.0 mi North 5.8 mph - N/A   Clear
9:55 AM 74.3 °F - 55.2 °F 51% 29.97 in 10.0 mi North 5.8 mph - N/A   Clear
10:15 AM 74.3 °F - 55.4 °F 52% 29.98 in 10.0 mi North 4.6 mph - N/A   Clear
10:35 AM 75.4 °F - 55.0 °F 49% 29.98 in 7.0 mi North 3.5 mph - N/A   Clear
10:55 AM 76.8 °F - 55.4 °F 47% 29.98 in 10.0 mi NNE 4.6 mph - N/A   Clear
11:15 AM 77.9 °F - 55.2 °F 45% 29.99 in 10.0 mi North 3.5 mph - N/A   Clear
11:35 AM 79.7 °F - 55.4 °F 43% 29.99 in 10.0 mi NE 6.9 mph - N/A   Clear
11:55 AM 81.7 °F 81.4 °F 56.7 °F 42% 29.99 in 10.0 mi Calm Calm - N/A   Clear
12:15 PM 83.5 °F 82.5 °F 55.4 °F 38% 29.98 in 10.0 mi North 3.5 mph - N/A   Clear
12:55 PM 87.1 °F 85.3 °F 54.3 °F 33% 29.97 in 10.0 mi NE 6.9 mph - N/A   Clear
1:15 PM 88.0 °F 85.7 °F 53.1 °F 30% 29.97 in 7.0 mi ENE 11.5 mph - N/A   Clear
1:35 PM 88.9 °F 86.9 °F 54.1 °F 31% 29.96 in 10.0 mi ENE 6.9 mph - N/A   Clear
1:55 PM 89.4 °F 87.5 °F 54.7 °F 31% 29.95 in 10.0 mi NE 8.1 mph - N/A   Clear
2:15 PM 90.1 °F 87.9 °F 53.6 °F 29% 29.94 in 10.0 mi NNE 11.5 mph - N/A   Clear
2:35 PM 90.9 °F - 52.0 °F 26% 29.93 in 10.0 mi ENE 10.4 mph 18.4 mph N/A   Clear
2:55 PM 90.7 °F 88.3 °F 53.4 °F 28% 29.93 in 10.0 mi ENE 11.5 mph 17.3 mph N/A   Clear
3:15 PM 90.7 °F - 52.9 °F 28% 29.93 in 10.0 mi NE 9.2 mph - N/A   Clear
3:35 PM 90.7 °F - 52.7 °F 27% 29.92 in 10.0 mi NNE 9.2 mph 16.1 mph N/A   Clear
3:55 PM 90.9 °F - 52.5 °F 27% 29.92 in 10.0 mi North 8.1 mph - N/A   Clear
4:15 PM 91.2 °F - 51.6 °F 26% 29.92 in 10.0 mi NNE 8.1 mph - N/A   Clear
4:35 PM 90.7 °F - 50.5 °F 25% 29.91 in 10.0 mi NE 6.9 mph - N/A   Clear
4:55 PM 90.9 °F - 49.8 °F 24% 29.91 in 10.0 mi ENE 4.6 mph - N/A   Clear
5:15 PM 90.5 °F - 49.5 °F 24% 29.91 in 10.0 mi NE 4.6 mph - N/A   Clear
5:35 PM 90.5 °F - 49.3 °F 24% 29.91 in 10.0 mi ENE 4.6 mph - N/A   Clear
5:55 PM 90.0 °F - 48.4 °F 24% 29.91 in 10.0 mi NNE 10.4 mph - N/A   Clear
6:15 PM 89.6 °F - 48.4 °F 24% 29.91 in 10.0 mi NNE 5.8 mph - N/A   Clear
6:35 PM 88.7 °F - 46.9 °F 24% 29.91 in 10.0 mi NE 8.1 mph - N/A   Clear
6:55 PM 87.1 °F - 46.6 °F 24% 29.91 in 10.0 mi NE 6.9 mph - N/A   Clear
7:15 PM 85.1 °F - 46.9 °F 26% 29.91 in 10.0 mi NE 5.8 mph - N/A   Clear
7:35 PM 83.5 °F - 47.3 °F 28% 29.91 in 10.0 mi NE 3.5 mph - N/A   Clear
7:55 PM 81.7 °F - 47.5 °F 30% 29.91 in 10.0 mi ENE 5.8 mph - N/A   Clear
8:15 PM 80.8 °F - 47.3 °F 31% 29.91 in 10.0 mi ENE 5.8 mph - N/A   Clear
8:35 PM 78.4 °F - 48.2 °F 34% 29.92 in 10.0 mi East 5.8 mph - N/A   Clear
8:55 PM 77.0 °F - 48.4 °F 36% 29.92 in 10.0 mi East 5.8 mph - N/A   Clear
9:15 PM 76.3 °F - 48.9 °F 38% 29.93 in 10.0 mi East 4.6 mph - N/A   Clear
9:35 PM 76.5 °F - 47.1 °F 35% 29.93 in 10.0 mi ENE 10.4 mph - N/A   Clear
9:55 PM 73.4 °F - 50.0 °F 44% 29.93 in 10.0 mi East 4.6 mph - N/A   Clear
10:15 PM 74.7 °F - 47.1 °F 38% 29.93 in 10.0 mi East 5.8 mph - N/A   Clear
10:35 PM 70.2 °F - 51.6 °F 52% 29.93 in 10.0 mi Calm Calm - N/A   Clear
10:55 PM 72.9 °F - 48.0 °F 41% 29.93 in 10.0 mi East 3.5 mph - N/A   Clear
11:15 PM 70.9 °F - 50.0 °F 48% 29.93 in 10.0 mi Calm Calm - N/A   Clear
11:35 PM 69.4 °F - 49.5 °F 49% 29.93 in 10.0 mi South 3.5 mph - N/A   Clear
11:55 PM 68.4 °F - 50.2 °F 52% 29.93 in 10.0 mi Calm Calm - N/A   Clear